CAPE
0 0 0 0 0 0 0 6 5 80 329 389 48 1033 1418 2933 3307 2984 3409 3310 3022 2766 2461 1900 2398 2042 2137 1748 1413 1245 970 823 688 511 591 714 570 462 576 376 480 386 6
0 0 0 0 0 0 0 0 31 40 342 527 877 729 1423 1099 2799 3005 3325 3226 3047 2545 1960 2171 2289 2245 2283 1919 1473 1218 928 764 736 551 506 478 243 248 302 309 198 327 101
0 3 1 0 0 0 0 0 0 3 59 407 945 1217 1731 2136 2274 3052 3424 3234 2348 2189 2486 2277 2424 2436 2179 1695 1456 1218 718 607 644 588 622 323 190 82 0 51 190 185 18
0 3 0 19 9 0 40 7 0 0 23 342 822 1229 1717 1711 2203 3056 3315 2830 1985 2587 2469 2528 2386 2161 1863 1561 1383 1048 684 817 606 372 327 297 144 0 0 0 0 33 5
0 6 57 50 28 13 0 0 0 0 76 204 508 1057 1254 1789 2076 2773 2773 2532 2398 2490 2553 2609 2325 1756 1493 1322 1136 828 692 394 449 310 210 233 99 0 0 0 3 14 20
8 1 31 52 20 37 6 89 0 0 4 299 610 875 1195 1475 2032 2250 2436 2583 2583 2514 2395 2173 1512 976 793 755 460 479 692 608 434 264 203 239 94 0 0 0 1 13 0
0 22 64 41 97 37 37 30 77 232 95 63 902 995 1102 1787 1675 1589 2345 2522 2660 2417 2188 1858 1301 947 633 392 149 126 234 230 302 379 228 178 103 21 2 50 23 6 39
3 24 32 23 51 51 31 111 89 97 42 674 783 1483 1465 2036 1502 1501 2162 2426 2209 1883 1943 1725 1383 999 788 673 349 247 230 120 96 104 301 309 226 184 16 90 47 39 47
35 23 16 0 59 122 55 141 187 146 214 477 1246 1808 1557 1457 1215 1583 2133 1992 1777 1795 1607 1497 1085 762 697 347 405 212 97 67 0 5 125 140 41 178 98 57 38 62 37
15 5 17 64 122 152 153 255 200 262 526 644 1167 1849 1833 1506 995 1524 1735 1775 1575 1251 955 592 512 771 347 190 632 404 238 205 34 14 3 0 0 0 0 51 25 25 4
2 11 0 96 236 160 273 336 432 325 664 463 1274 1656 1801 1342 803 835 1030 1280 954 886 729 674 272 150 148 143 293 355 279 263 87 95 49 3 10 1 5 36 83 61 23
3 4 8 123 174 238 363 375 362 740 708 912 1331 1495 1582 864 185 271 493 426 653 571 612 603 28 1 11 49 130 12 90 140 118 140 37 34 9 26 6 37 58 52 16
4 4 30 111 127 193 175 330 578 771 890 1258 1328 1390 871 227 1 12 3 192 377 382 326 48 0 0 0 0 0 0 36 53 49 40 63 68 73 74 37 16 35 37 85
4 35 86 92 167 168 140 170 325 745 953 1094 1223 786 563 173 62 0 1 0 0 0 0 0 0 0 0 0 0 0 31 36 26 35 69 69 67 33 0 7 23 22 24
3 35 52 40 15 0 27 122 370 827 972 1184 933 685 497 257 99 75 148 137 95 2 0 0 0 0 0 0 0 25 37 21 55 66 79 59 46 18 32 41 14 4 13
20 6 12 13 15 64 31 1 1 86 591 702 617 481 125 129 3 0 2 29 0 0 0 0 2 19 19 25 14 43 63 37 50 72 65 8 3 6 10 16 16 15 15
2 5 0 2 51 59 56 0 1 0 0 0 1 1 0 0 0 0 0 0 0 0 16 6 26 53 50 38 85 44 13 8 9 34 20 10 10 10 8 9 5 8 6
2 2 6 97 77 27 81 106 56 5 0 0 0 0 0 0 0 0 0 0 0 10 28 31 47 43 27 42 10 15 25 13 16 12 13 13 19 13 6 4 4 4 16
0 65 177 172 74 161 204 183 25 0 0 0 0 0 0 0 0 0 0 0 5 12 13 19 41 35 26 18 16 22 16 14 10 14 22 25 19 7 6 2 7 3 0
49 15 94 129 154 146 36 0 0 0 2 1 0 0 1 0 1 2 1 0 0 1 5 17 31 23 13 3 6 6 6 7 9 11 11 31 7 11 3 3 13 22 11
106 79 19 52 36 6 1 0 0 2 3 1 1 0 0 0 0 9 9 1 0 0 0 3 7 2 4 2 1 0 0 0 1 12 8 7 19 24 17 10 2 13 21
61 13 7 0 1 0 0 1 2 1 1 0 0 0 0 0 0 0 0 0 0 0 0 0 0 0 3 3 12 7 20 21 15 14 6 0 4 16 27 28 13 0 0
99 92 48 12 0 0 0 0 0 1 1 1 0 0 0 1 0 0 0 0 0 0 0 0 0 0 0 0 0 0 4 10 14 10 4 27 29 4 0 0 0 0 0
65 17 0 0 0 0 0 0 1 0 0 0 0 0 0 0 0 0 0 0 0 0 0 0 0 0 0 0 0 0 0 0 0 0 1 0 0 0 0 0 0 0 0
42 10 0 0 0 0 1 1 0 0 0 0 0 0 0 0 0 0 0 0 0 0 0 0 0 0 0 0 0 0 0 0 0 0 0 0 0 0 0 0 0 0 0
1 0 0 0 0 0 0 0 1 0 1 0 0 0 0 0 0 0 0 0 0 0 0 0 0 0 0 0 0 0 0 0 0 0 0 0 0 0 0 0 0 0 0
CIN
0 0 0 0 0 0 0 -272 -253 -118 -97 -122 -160 -78 -47 -3 -8 -12 -4 -1 -8 -27 -70 -102 -49 -71 -29 -10 -12 -19 -14 -19 -23 -15 -35 -32 -41 -28 -10 -28 -15 -7 -60
0 0 0 0 0 0 0 0 -100 -134 -92 -99 -93 -102 -41 -48 -8 -6 -2 -8 -10 -42 -83 -49 -28 -35 -9 -7 -5 -19 -25 -27 -22 -8 -18 -35 -54 -53 -29 -15 -10 -6 -58
0 -2 -2 0 0 0 0 0 0 -183 -133 -86 -63 -58 -26 -22 -45 -2 0 -4 -12 -50 -34 -44 -20 -4 -5 -11 -17 -20 -47 -40 -23 -15 -19 -34 -71 -77 0 -33 -3 -8 -65
0 -1 0 -6 -6 0 -37 -48 0 0 -166 -74 -52 -43 -26 -21 -2 -2 -2 -11 -24 -7 -22 -10 -8 -10 -11 -16 -11 -17 -32 -8 -16 -37 -43 -44 -74 0 0 0 0 -17 -44
0 -68 -27 -56 -9 -4 0 0 0 0 -96 -59 -58 -43 -43 -9 -1 -3 -4 -9 -5 -5 -6 -6 -7 -16 -21 -23 -19 -25 -20 -46 -23 -42 -52 -28 -66 0 0 0 -1 -6 -4
-46 -1 -62 -21 -120 -52 -20 -11 0 0 -115 -35 -32 -51 -47 -36 -1 -8 -16 -2 -3 -8 -10 -8 -20 -65 -80 -71 -103 -78 -26 -27 -28 -36 -41 -20 -45 0 -1 0 -2 0 0
0 -78 -75 -105 -20 -37 -18 -16 -10 -13 -16 -125 -5 -39 -44 -7 -12 -18 -16 -4 -5 -8 -8 -10 -29 -56 -90 -123 -198 -168 -117 -74 -48 -22 -24 -23 -36 -60 -16 -17 -17 -7 -2
-6 -23 -63 -47 -5 -18 -25 -3 -17 -37 -33 -10 -10 -1 -19 -5 -26 -42 -27 -13 -12 -12 -12 -16 -10 -24 -44 -45 -109 -110 -79 -94 -88 -61 -23 -21 -23 -29 -44 -12 -18 -10 -18
0 -5 -41 0 -6 -13 -26 -7 -6 -30 -7 -7 -1 0 -15 -19 -84 -43 -33 -28 -19 -9 -16 -14 -16 -15 -30 -85 -77 -81 -115 -122 0 -126 -52 -47 -46 -18 -12 -19 -17 -6 -4
-10 -13 -6 -1 -8 -8 -10 -12 -14 -13 -5 -11 -4 -2 -6 -54 -161 -68 -34 -27 -18 -15 -14 -62 -46 -4 -100 -104 -9 -31 -40 -49 -77 -87 -78 0 0 0 0 -33 -15 -18 -6
-12 -9 0 -13 -2 -33 -20 -12 -4 -6 -7 -23 -3 -2 -30 -117 -197 -132 -74 -15 -28 -10 -11 -9 -98 -124 -133 -96 -38 -20 -15 -15 -29 -33 -39 -43 -34 -2 -46 -31 -16 -10 -8
-1 -2 -29 -5 -19 -29 -8 -9 -11 -3 -11 -17 -3 -4 -32 -137 -298 -219 -104 -68 -12 -18 -16 -33 -29 -70 -195 -141 -95 -141 -46 -20 -13 -7 -21 -28 -34 -16 -11 -8 -14 -16 -11
-7 -12 -16 -9 -32 -39 -37 -6 -3 -2 -7 -2 -5 -2 -77 -221 -28 -181 -58 -98 -59 -52 -67 -137 0 0 0 0 0 0 -54 -30 -51 -14 -4 -14 -5 -22 -9 -9 -11 -14 -16
0 -6 -5 -21 -9 -16 -25 -9 -3 -1 -9 -2 -3 -72 -131 -200 -229 -19 -35 0 0 0 0 0 0 0 0 0 0 0 -31 -32 -25 -27 -12 -9 -8 -7 -8 -19 -5 -6 -8
-3 0 -14 -25 -21 0 -34 -11 -1 -7 -13 -8 -48 -128 -148 -145 -173 -171 -102 -79 -109 -32 0 0 0 0 0 0 0 -13 -22 -34 -26 -26 -8 -6 -8 -15 -10 -9 -9 -2 -3
-6 -19 -21 -6 -13 -8 -61 -9 0 -187 -37 -60 -56 -86 -153 -122 -63 -61 -39 -118 0 0 0 0 -14 -32 -22 -10 -17 -17 -15 -19 -11 -10 -10 -20 -12 -16 -11 -14 -13 -7 -5
0 -26 0 -3 -24 -21 -53 -3 0 0 0 0 -4 -6 0 0 0 0 0 0 0 0 -51 -35 -12 -9 -10 -18 -5 -13 -8 -11 -10 -13 -16 -17 -15 -12 -17 -9 -9 -5 -3
-5 -2 -11 -1 -10 -5 -9 -4 -83 -31 0 0 0 0 0 0 0 0 0 0 0 -42 -16 -6 -3 -5 -9 -7 -9 -9 -13 -12 -11 -14 -6 -6 -5 -10 -11 -3 -12 -9 -3
-5 -32 -1 -1 -3 -1 -3 -27 -112 0 0 0 0 0 0 0 0 0 0 0 -18 -8 -5 -2 -6 -7 -5 -7 -6 -13 -13 -7 -5 -15 -11 -6 -24 -21 -19 -11 -20 -61 0
-6 -9 -17 -15 -7 -2 -29 0 0 0 0 0 0 0 0 0 0 -1 -5 0 0 -11 -4 -13 -4 -8 -21 -33 -27 -28 -30 -27 -24 -15 -9 -5 -15 -13 -20 -28 -8 -11 -9
-2 -17 -61 -38 -51 -103 -55 0 0 0 0 0 0 0 0 -1 -2 0 0 -3 0 -1 -11 -15 -24 -8 -53 -24 -28 0 0 0 -20 -5 -17 -35 -15 -10 -10 -20 -18 -6 -5
-12 -42 -51 0 -1 -13 0 0 0 0 0 0 0 0 0 0 0 0 0 0 -20 0 -6 0 0 0 -60 -25 -10 -6 -6 -5 -5 -7 -14 -10 -6 -20 -13 -13 -15 0 0
-16 -1 -20 -5 0 0 0 0 0 0 0 0 0 0 0 0 0 0 0 0 0 0 0 0 0 0 0 0 -10 0 -15 -2 -10 -16 -12 -11 -3 -9 0 0 0 0 0
-6 -15 0 0 -1 0 0 0 0 0 0 0 0 0 0 0 0 0 0 0 0 0 0 0 0 0 0 0 0 0 0 0 0 0 -7 0 0 0 0 0 0 0 0
-5 -10 -13 0 0 0 0 0 0 0 0 0 0 0 0 0 0 0 0 0 0 0 0 0 0 0 0 0 0 0 0 0 0 0 0 0 0 0 0 0 0 0 0
-10 -4 -3 0 0 0 0 0 0 0 0 0 0 0 0 0 0 0 0 0 0 0 0 0 0 0 0 0 0 0 0 0 0 0 0 0 0 0 0 0 0 0 0
Wind_Speed
29 29 28 31 31 32 34 37 37 36 35 35 38 37 35 23 19 19 19 18 16 17 16 15 14 14 16 15 14 10 11 13 14 16 14 15 15 17 19 18 16 13 10
35 31 31 32 31 32 31 34 37 39 38 36 32 33 32 32 28 25 23 19 18 17 16 14 14 13 14 15 15 12 11 12 11 14 12 14 15 15 18 16 14 14 9
35 34 32 32 34 35 36 35 36 39 40 39 37 32 34 32 26 24 23 20 19 16 13 12 13 12 13 14 12 11 9 8 9 12 14 13 15 17 18 14 12 12 11
42 38 36 36 36 38 38 38 37 38 40 40 38 34 32 31 27 20 18 17 18 13 13 12 13 12 13 11 9 8 7 9 10 12 13 11 14 16 16 14 13 11 9
46 43 41 37 36 40 43 43 41 40 40 40 40 37 32 28 22 16 13 13 14 12 12 13 13 12 9 8 8 6 6 11 12 12 12 11 12 14 11 11 11 10 11
46 45 43 43 39 38 41 43 43 41 42 42 41 37 35 31 22 14 12 11 13 12 13 12 13 10 9 7 8 8 9 10 11 11 9 9 10 11 8 8 8 8 12
46 46 42 41 41 37 41 43 45 41 40 41 44 39 38 29 22 14 13 13 13 12 11 11 12 10 5 6 7 11 12 10 10 9 8 8 10 8 7 6 6 6 11
43 43 41 39 39 36 39 41 45 45 44 40 43 41 41 33 21 14 13 13 13 14 13 11 8 5 2 3 7 10 9 9 10 12 11 10 9 6 5 6 8 8 9
41 43 40 52 44 41 40 42 44 46 45 43 42 42 42 26 18 14 12 14 14 13 11 8 5 4 2 3 7 7 7 8 11 13 13 11 10 9 7 7 6 6 8
46 47 44 39 43 42 40 40 44 47 43 41 43 41 28 23 17 13 13 13 13 12 7 7 6 2 1 4 5 5 5 5 7 10 10 10 11 10 7 6 8 6 7
45 46 49 49 45 43 46 44 44 45 43 43 42 33 25 19 16 13 12 11 6 6 6 6 9 7 5 5 6 6 4 2 3 5 7 9 10 10 8 7 6 8 8
44 45 48 49 46 44 44 45 45 45 44 43 38 27 21 19 16 12 11 12 4 4 4 5 7 6 6 8 9 8 6 1 2 4 6 5 7 8 7 9 14 16 18
41 48 50 47 47 47 46 45 45 44 45 42 29 23 19 18 13 9 7 3 1 3 4 3 4 7 7 9 9 8 4 2 2 3 8 7 10 8 9 11 12 15 16
45 46 47 49 50 48 46 45 45 46 47 38 26 22 16 14 11 9 5 1 2 3 4 4 6 7 9 7 7 6 5 4 4 4 6 9 11 9 10 12 11 12 14
43 43 44 44 45 45 46 44 47 50 37 26 23 16 13 12 11 9 6 3 0 1 3 5 6 6 8 7 6 6 6 5 6 5 9 11 11 11 12 11 12 12 15
40 41 41 40 41 41 41 38 31 38 29 20 16 13 13 9 10 8 4 5 6 5 3 4 5 5 5 6 6 6 6 7 7 5 12 13 11 12 12 13 14 14 15
39 39 38 38 37 40 35 35 30 18 16 13 11 9 9 10 8 6 9 9 5 3 4 4 5 5 5 6 5 5 6 7 8 12 14 12 11 11 11 14 16 17 18
37 37 37 39 30 44 35 37 22 18 16 12 7 8 12 11 10 9 8 5 3 5 3 3 3 4 6 6 6 5 6 8 10 9 9 9 9 10 11 12 14 16 16
35 40 28 40 27 23 22 18 15 14 13 11 8 6 6 8 8 7 3 2 0 2 4 3 4 3 3 4 6 7 8 10 10 10 10 10 11 11 11 12 13 14 15
39 31 20 19 18 19 15 13 12 12 10 9 7 7 6 5 4 2 2 4 4 5 5 4 3 3 5 6 7 7 9 10 10 11 10 9 10 11 12 11 12 14 12
24 18 16 14 16 14 13 12 13 10 7 7 6 5 3 2 4 3 4 4 3 6 6 3 2 4 5 5 7 7 7 7 8 9 9 10 11 12 13 12 13 13 16
16 15 14 12 17 13 11 11 8 8 8 7 5 3 2 2 1 1 2 1 0 1 0 2 3 3 5 7 9 9 7 7 8 9 10 11 11 12 13 14 15 15 16
24 15 14 16 11 10 9 9 8 8 7 6 4 4 4 2 1 1 1 3 2 3 2 2 2 4 5 6 7 7 7 9 10 9 12 12 13 14 14 14 15 17 18
12 9 10 10 9 9 8 8 7 8 7 6 5 5 3 3 3 3 2 3 2 1 3 3 3 4 5 5 6 6 7 7 8 10 12 13 13 14 15 16 17 18 19
6 8 8 9 8 9 10 7 7 6 7 6 5 5 4 5 6 6 5 5 4 2 2 2 2 4 5 5 6 6 8 9 9 11 13 14 15 16 17 17 18 19 20
7 9 9 10 9 8 6 6 6 6 7 7 6 7 7 7 7 7 6 6 5 5 5 5 6 7 7 8 10 11 12 12 13 13 14 15 17 17 18 18 19 19 20
Wind_Direction
292 288 287 285 283 281 278 275 275 274 274 276 274 276 276 268 258 257 269 273 271 286 296 299 303 314 318 322 325 328 326 336 333 342 351 354 353 348 350 357 7 10 30
290 287 285 285 283 282 282 280 276 273 273 273 274 273 272 269 271 271 268 272 273 280 286 297 301 312 316 322 325 327 329 333 337 339 351 351 354 357 354 359 10 4 36
297 292 283 282 280 281 280 281 279 274 271 269 270 272 270 270 267 267 269 266 272 271 281 289 300 309 314 319 320 326 324 331 339 344 344 350 351 353 351 1 17 13 20
293 291 285 281 279 280 281 279 277 275 269 267 267 270 271 270 268 264 263 262 271 263 280 288 299 307 311 318 321 325 331 334 338 343 347 357 355 350 351 0 18 28 28
288 286 287 281 281 279 278 275 275 273 269 265 263 265 268 269 266 252 252 258 264 268 281 292 301 307 311 318 321 325 329 332 340 342 344 354 359 352 360 13 14 22 354
291 281 280 283 278 279 275 273 270 270 266 262 260 261 263 265 262 231 239 256 268 271 283 293 307 312 318 324 331 336 332 336 338 338 341 349 358 353 9 30 20 28 343
286 281 277 275 278 275 273 271 267 266 265 259 255 255 256 260 260 228 231 261 269 273 281 293 305 313 314 320 331 333 336 344 344 344 346 347 350 354 9 47 30 46 5
284 276 273 270 274 277 273 270 264 261 259 257 251 250 250 256 252 231 233 259 267 277 284 293 295 307 292 304 318 323 330 342 342 336 341 344 344 19 62 55 348 6 20
280 270 267 259 267 272 275 271 264 256 254 253 247 245 244 250 241 228 238 261 269 279 290 294 287 285 234 308 325 321 329 341 342 333 339 341 337 337 9 65 15 19 8
264 256 256 263 261 268 272 270 260 250 248 247 242 240 242 240 231 219 244 258 269 281 291 307 306 280 267 308 321 327 337 339 343 341 355 329 324 335 355 59 87 59 32
253 250 251 253 259 263 258 255 248 244 243 239 235 236 234 229 231 221 245 257 247 270 285 299 310 317 318 323 314 315 317 9 15 25 355 332 326 333 337 352 36 354 3
264 260 253 249 252 252 251 244 240 237 233 230 228 227 228 226 221 223 244 270 212 275 306 326 322 332 320 321 321 319 329 37 20 30 355 350 348 345 353 335 303 294 295
265 249 245 251 248 246 238 236 231 227 222 219 216 213 214 221 222 213 249 258 249 321 346 2 20 352 341 335 331 327 348 72 14 63 303 315 313 333 345 325 319 308 307
233 234 234 235 237 235 230 225 221 216 211 213 209 210 210 212 207 208 215 208 76 33 35 17 3 359 350 357 351 350 349 348 346 24 335 304 308 334 332 320 328 327 321
223 223 222 224 222 221 219 222 213 205 207 199 204 203 203 204 205 193 190 211 12 80 40 23 11 16 17 31 25 18 15 347 339 342 299 291 307 319 323 329 329 325 321
211 210 210 211 213 216 209 210 213 205 196 192 200 201 221 183 160 163 175 132 118 101 44 44 40 47 44 57 53 42 26 42 46 336 283 296 301 308 317 322 325 332 327
198 198 203 208 212 198 192 201 190 166 161 170 171 165 162 146 147 155 132 123 108 69 62 50 53 56 61 67 35 19 355 24 318 290 279 292 301 313 330 326 317 317 318
194 199 197 189 186 155 184 181 171 163 159 162 167 140 123 123 125 127 125 115 107 315 39 39 36 59 75 62 47 18 344 305 306 319 321 328 334 334 343 346 343 332 336
188 178 171 165 135 165 162 160 156 154 152 146 147 157 141 120 116 111 116 131 298 339 308 313 330 7 12 339 323 320 308 305 312 307 310 324 331 342 350 355 353 354 346
172 163 156 152 157 164 163 160 158 157 166 176 172 165 165 144 139 225 259 261 278 290 281 287 342 335 316 309 313 318 308 306 296 297 312 342 3 11 353 3 7 9 28
161 151 135 138 163 166 176 181 181 177 170 164 163 185 164 181 243 249 274 281 276 277 270 281 336 309 312 316 309 319 323 325 318 336 356 357 352 4 17 21 19 32 4
155 155 159 160 174 177 173 171 164 166 164 154 143 141 141 227 256 311 323 292 281 125 317 20 357 333 313 298 285 288 330 357 8 29 29 35 36 22 24 29 26 19 3
166 167 159 165 149 142 150 157 156 145 143 146 154 193 215 219 222 85 97 120 106 80 285 284 351 348 311 316 337 331 350 349 340 19 51 49 43 40 29 18 9 4 1
156 149 138 145 147 138 135 126 124 142 160 180 189 187 161 148 124 112 134 122 95 328 301 313 307 327 335 335 331 332 335 336 350 15 38 38 30 24 25 18 14 14 13
137 139 126 120 129 121 115 129 139 158 178 180 166 161 139 110 97 90 87 80 73 43 4 319 332 5 5 14 9 5 4 15 20 18 23 29 31 28 26 28 24 16 8
100 106 111 109 111 121 136 155 148 147 137 121 120 111 106 104 97 90 81 71 65 67 64 55 53 49 42 36 38 39 34 30 28 29 25 29 33 29 23 21 19 16 14